Regional Weather Roundup
Issued by NWS

Home | Current Version | Previous Version | Graphics & Text | Print | Product List | Glossary On
Versions: 1 2 3 4 5 6 7 8 9 10 11 12 13 14 15 16 17 18 19 20 21 22 23 24 25 26 27 28 29 30 31 32 33 34 35 36 37 38 39 40 41 42 43 44 45 46 47 48 49 50
000
ASUS43 KIND 252209
RWRIN

WEATHER ROUNDUP FOR INDIANA
NATIONAL WEATHER SERVICE INDIANAPOLIS IN
600 PM EDT SUN SEP 25 2016

NOTE: "FAIR" INDICATES FEW OR NO CLOUDS BELOW 12,000 FEET WITH NO
SIGNIFICANT WEATHER AND/OR OBSTRUCTIONS TO VISIBILITY.

* - STATION DOES NOT REPORT WEATHER SUCH AS PRECIPITATION OR FOG.

+ - STATION NOT QUALITY CONTROLLED BY THE NATIONAL WEATHER SERVICE.
    USE DATA WITH CAUTION...ESPECIALLY DEWPOINT AND RELATIVE
    HUMIDITY OBSERVATIONS.

INZ001>003-010>013-019-020-252300-
NORTHWEST INDIANA

CITY           SKY/WX    TMP DP  RH WIND       PRES   REMARKS
GARY /AIRPORT/ PTSUNNY   84  68  58 S7        29.92F
KNOX *+        MOSUNNY   82  34  17 S10       29.95F
LA PORTE +     PTSUNNY   84  65  52 SE5       29.95F
MICHIGAN CITY+ CLOUDY    79  66  65 MISG      29.94F
MONTICELLO +   PTSUNNY   85  60  42 S7        29.95F
RENSSELAER +   MOSUNNY   86  63  45 S7G16     29.94S
VALPARAISO     TSTM      75  68  78 VRB3      29.95S

$$

LMZ046-743>745-252300-
SOUTHERN LAKE MICHIGAN

STATION/POSITION TIME  TEMP    WIND        PRES    WAVE
                       AIR SEA DIR/SP/G            HT
                 (UTC) (F)     (DEG/KT/KT) (MB)    (FT)
BURNS HARBOR     2101   85     170/  8/ 14 1013.9F
MICHIGAN CITY    2100   83     110/  7/  9   N/A
5NW MICH CITY    2200   76 71  150/  6/  8   N/A     1

$$

INZ004-005-014>016-021>024-252300-
NORTH CENTRAL INDIANA

CITY           SKY/WX    TMP DP  RH WIND       PRES   REMARKS
GOSHEN         SUNNY     80  62  54 SE9       29.98F
LOGANSPORT +   SUNNY     84  61  45 S7        29.97F
PERU/GRISSOM   MOSUNNY   83  65  54 SE9       29.97F
ROCHESTER +    SUNNY     86  66  51 SE7       29.97F
SOUTH BEND     MOSUNNY   81  65  58 SE8       29.97F
WARSAW +       SUNNY     81  55  41 SE6       29.99F

$$

INZ006>009-017-018-025>027-252300-
NORTHEAST INDIANA

CITY           SKY/WX    TMP DP  RH WIND       PRES   REMARKS
ANGOLA *+      SUNNY     79  63  57 SE7       30.03F
AUBURN +       SUNNY     79  59  50 E6        30.03S
FORT WAYNE     MOSUNNY   80  63  55 SE9       30.01F
HUNTINGTON +   SUNNY    N/A N/A N/A SE6       30.00S
KENDALLVILLE + SUNNY     76  61  58 SE7       30.02F

$$

INZ028-029-035-036-043>045-051>053-252300-
WEST CENTRAL INDIANA

CITY           SKY/WX    TMP DP  RH WIND       PRES   REMARKS
CRAWFORDSVL +  MOSUNNY   84  67  55 S9        29.98F
GREENCASTLE +  SUNNY     82  72  69 S6        30.00F
LAFAYETTE      MOSUNNY   83  66  56 S5        29.94F
TERRE HAUTE    MOSUNNY   86  67  52 S7        29.98F

$$

INZ030>032-037>040-046>048-054>057-064-065-252300-
CENTRAL INDIANA

CITY           SKY/WX    TMP DP  RH WIND       PRES   REMARKS
COLUMBUS       SUNNY     84  64  51 SW5       30.02F
FISHERS *+     SUNNY     84  70  61 SE6       30.00
GREENWOOD *+   MOSUNNY  N/A N/A N/A S7        30.01F
INDIANAPOLIS   MOSUNNY   84  66  54 S12       29.99
-EAGLE CREEK   SUNNY     85  65  51 S7        29.99F
MARION +       MOSUNNY   83  62  49 S7        30.00F HAZE
MT COMFORT *+  SUNNY     84  64  51 S6        30.01F
SHELBYVILLE    MOSUNNY   86  63  45 S7        30.00F
ZIONSVILLE +   SUNNY     83  65  55 SE8       30.01F

$$

INZ033-034-041-042-049-050-058-059-252300-
EAST CENTRAL INDIANA

CITY           SKY/WX    TMP DP  RH WIND       PRES   REMARKS
MUNCIE         MOSUNNY   85  62  46 S7        30.01F

$$

INZ060-061-067>069-081>083-085>088-252300-
SOUTHWEST INDIANA

CITY           SKY/WX    TMP DP  RH WIND       PRES   REMARKS
EVANSVILLE     SUNNY     89  66  46 W6        30.00F
HUNTINGBURG *+   N/A     88  64  45 SE5       30.01S
WASHINGTON +   MOSUNNY  N/A N/A N/A MISG      29.99S

$$

INZ062-063-066-070>080-084-089>092-252300-
SOUTH CENTRAL AND SOUTHEAST INDIANA

CITY           SKY/WX    TMP DP  RH WIND       PRES   REMARKS
BEDFORD +      SUNNY    N/A N/A N/A CALM      30.00F
BLOOMINGTON    SUNNY     86  65  49 S6        30.01F
MADISON *+     SUNNY     86  61  42 CALM      30.05S
NORTH VERNON + MOSUNNY   86  72  62 SE3       30.03F
SEYMOUR +      MOSUNNY   88  63  42 CALM      30.01F

$$





USA.gov is the U.S. government's official web portal to all federal, state and local government web resources and services.